Vertical_Velocity
-2 -1 -1 -2 -3 -4 -5 -5 -6 -6 -6 -5 -4 -4 -5 -6 -6 -2 -3 -5 -3 -1
-0 -1 -3 -3 -4 -4 -4 -4 -4 -3 -2 -3 -5 -7 -8 -5 -3 -1 -5 -5 -0 -2
-1 -2 -2 -2 -3 -3 -1 -2 -2 -2 -2 -8 -8 -7 -6 -5 -4 -7 -6 -4 -3 -3
-0 1 0 -1 -2 -2 -1 -0 -1 -3 -5 -6 -4 -6 -3 -5 -4 -5 -4 -1 -4 -3
-0 0 -1 -2 -1 0 -0 -1 -2 -4 -6 -6 -7 -6 -5 -4 -2 -4 -3 -1 -10 -3
-1 -1 -2 -1 -1 -0 3 0 -3 -5 -4 -4 -3 -2 -4 -4 -3 -3 -4 -7 -7 -7
-2 -1 0 -1 0 2 -0 -2 -2 -1 -1 -2 -2 -2 -4 -8 -7 -5 -4 -3 -7 -6
-0 2 0 0 1 -0 -1 -2 -0 0 -1 -2 -2 -2 -5 -5 -7 -6 -4 2 1 0
2 0 0 1 -1 -1 -1 -0 -1 -1 -5 -0 -0 -2 -2 -8 -12 -1 -1 -3 3 -2
-1 2 1 -0 -2 -1 1 -1 -1 0 -2 -2 -1 -1 -0 2 -7 -7 -3 -3 -4 -3
1 1 2 2 1 2 -1 -3 -2 -1 -0 -6 3 0 3 -0 -7 -6 -3 -5 -1 -5
0 2 3 2 2 2 -4 -1 -2 -2 -2 -6 -2 2 3 -3 -4 -3 -1 -0 1 -3
2 2 2 1 2 -0 -1 -4 -4 -2 -2 1 -13 10 1 3 -3 -8 -5 4 1 5
1 -1 -1 -1 -0 -2 -3 -5 -3 -9 1 -5 3 4 0 5 -4 -4 -7 -7 1 3
Height
3068 3066 3065 3063 3061 3059 3056 3054 3051 3047 3044 3041 3038 3035 3032 3029 3025 3023 3019 3017 3015 3012
3060 3059 3057 3055 3053 3051 3049 3046 3043 3040 3037 3034 3032 3029 3027 3024 3020 3016 3012 3010 3007 3004
3052 3051 3049 3047 3045 3042 3039 3036 3034 3032 3030 3028 3025 3023 3020 3017 3013 3010 3006 3002 2998 2996
3043 3041 3040 3037 3035 3032 3030 3028 3026 3024 3022 3021 3019 3016 3013 3010 3006 3002 2999 2994 2989 2988
3033 3032 3030 3028 3026 3024 3022 3019 3018 3016 3014 3013 3011 3008 3005 3002 2998 2994 2990 2986 2983 2980
3023 3021 3020 3019 3017 3015 3014 3011 3009 3007 3006 3004 3001 2999 2995 2992 2989 2986 2981 2978 2974 2971
3012 3012 3011 3010 3008 3007 3004 3003 3000 2998 2996 2994 2992 2988 2985 2982 2978 2975 2972 2969 2965 2961
3002 3002 3001 3000 2998 2997 2994 2991 2990 2988 2986 2984 2981 2977 2973 2970 2967 2963 2961 2958 2954 2950
2992 2991 2990 2988 2987 2985 2983 2980 2978 2976 2974 2973 2970 2966 2962 2957 2954 2951 2947 2944 2942 2938
2979 2979 2977 2975 2974 2972 2970 2967 2966 2964 2961 2960 2958 2954 2950 2946 2941 2937 2934 2931 2928 2925
2967 2966 2965 2963 2961 2959 2956 2954 2952 2950 2948 2945 2945 2940 2937 2932 2927 2924 2921 2918 2915 2911
2954 2953 2951 2949 2947 2945 2941 2939 2936 2934 2932 2929 2929 2925 2921 2916 2912 2908 2906 2904 2901 2898
2942 2939 2937 2935 2932 2929 2926 2922 2919 2918 2916 2913 2911 2909 2904 2899 2895 2893 2890 2889 2887 2886
2929 2925 2922 2919 2916 2912 2908 2905 2903 2900 2899 2895 2893 2891 2887 2884 2880 2878 2875 2873 2872 2872